• In Hungary
  • List of Countries
  • For 7 days
  • Water Temperature
  • Satellite Maps
  • Weather Map
  • News
  • Weather Widgets
  • user-avatar
    Login

    Hourly Weather Maksimovskoe

    Today, 23 May, Wednesday

    Time Temperature Precipitation Wind Pressure Humidity
    00:00 +10°C° 0 mm 2 mps 749 mmHg 95%
    01:00 +10°C° 0 mm 2 mps 749 mmHg 95%
    02:00 +10°C° 0 mm 2 mps 749 mmHg 96%
    03:00 +10°C° 0 mm 2 mps 750 mmHg 96%
    04:00 +10°C° 0 mm 2 mps 750 mmHg 96%
    05:00 +10°C° 0 mm 2 mps 750 mmHg 96%
    06:00 +13°C° 0 mm 2 mps 750 mmHg 90%
    07:00 +15°C° 0 mm 2 mps 750 mmHg 85%
    08:00 +17°C° 0 mm 2 mps 750 mmHg 79%
    09:00 +18°C° 0 mm 2 mps 750 mmHg 74%
    10:00 +20°C° 0 mm 3 mps 750 mmHg 68%
    11:00 +21°C° 0 mm 3 mps 750 mmHg 63%
    12:00 +21°C° 0.2 mm 3 mps 749 mmHg 63%
    13:00 +22°C° 0.2 mm 3 mps 749 mmHg 64%
    14:00 +22°C° 0.2 mm 3 mps 749 mmHg 65%
    15:00 +22°C° 0.8 mm 3 mps 749 mmHg 70%
    16:00 +21°C° 0.8 mm 3 mps 748 mmHg 75%
    17:00 +20°C° 0.8 mm 2 mps 748 mmHg 80%
    18:00 +19°C° 0.4 mm 2 mps 748 mmHg 83%
    19:00 +18°C° 0.4 mm 2 mps 748 mmHg 86%
    20:00 +17°C° 0.4 mm 2 mps 748 mmHg 89%
    21:00 +16°C° 0.2 mm 2 mps 748 mmHg 90%
    22:00 +16°C° 0.2 mm 2 mps 748 mmHg 91%
    23:00 +15°C° 0.2 mm 2 mps 748 mmHg 91%

    Tomorrow, 24 May, Thursday

    Time Temperature Precipitation Wind Pressure Humidity
    00:00 +15°C° 0.4 mm 1 mps 748 mmHg 92%
    01:00 +14°C° 0.4 mm 1 mps 748 mmHg 93%
    02:00 +13°C° 0.4 mm 1 mps 747 mmHg 94%
    03:00 +14°C° 0.1 mm 1 mps 747 mmHg 95%
    04:00 +14°C° 0.1 mm 1 mps 747 mmHg 95%
    05:00 +14°C° 0.1 mm 1 mps 747 mmHg 95%
    06:00 +15°C° 0.2 mm 1 mps 747 mmHg 92%
    07:00 +18°C° 0.2 mm 1 mps 748 mmHg 88%
    08:00 +19°C° 0.2 mm 1 mps 748 mmHg 85%
    09:00 +19°C° 0.8 mm 2 mps 748 mmHg 79%
    10:00 +20°C° 0.8 mm 2 mps 748 mmHg 74%
    11:00 +21°C° 0.8 mm 2 mps 748 mmHg 68%
    12:00 +23°C° 0.4 mm 2 mps 748 mmHg 66%
    13:00 +23°C° 0.4 mm 2 mps 747 mmHg 64%
    14:00 +24°C° 0.4 mm 2 mps 747 mmHg 62%
    15:00 +23°C° 0.6 mm 2 mps 747 mmHg 66%
    16:00 +22°C° 0.6 mm 3 mps 747 mmHg 70%
    17:00 +22°C° 0.6 mm 3 mps 747 mmHg 74%
    18:00 +20°C° 0.6 mm 3 mps 747 mmHg 80%
    19:00 +19°C° 0.6 mm 3 mps 747 mmHg 85%
    20:00 +17°C° 0.6 mm 3 mps 748 mmHg 90%
    21:00 +16°C° 0.1 mm 3 mps 748 mmHg 92%
    22:00 +16°C° 0.1 mm 3 mps 748 mmHg 93%
    23:00 +14°C° 0.1 mm 3 mps 749 mmHg 94%

    Day after tomorrow, 25 May, Friday

    Time Temperature Precipitation Wind Pressure Humidity
    00:00 +14°C° 0 mm 3 mps 749 mmHg 95%
    01:00 +14°C° 0 mm 3 mps 749 mmHg 95%
    02:00 +13°C° 0 mm 4 mps 749 mmHg 95%
    03:00 +13°C° 0 mm 4 mps 750 mmHg 95%
    04:00 +13°C° 0 mm 4 mps 750 mmHg 95%
    05:00 +13°C° 0 mm 4 mps 751 mmHg 95%
    06:00 +14°C° 0 mm 4 mps 751 mmHg 90%
    07:00 +15°C° 0 mm 5 mps 751 mmHg 86%
    08:00 +16°C° 0 mm 5 mps 752 mmHg 82%
    09:00 +17°C° 0 mm 5 mps 752 mmHg 75%
    10:00 +19°C° 0 mm 5 mps 752 mmHg 68%
    11:00 +20°C° 0 mm 5 mps 753 mmHg 62%
    12:00 +21°C° 0 mm 5 mps 753 mmHg 59%
    13:00 +21°C° 0 mm 5 mps 753 mmHg 56%
    14:00 +21°C° 0 mm 5 mps 753 mmHg 54%
    15:00 +21°C° 0 mm 4 mps 753 mmHg 56%
    16:00 +20°C° 0 mm 4 mps 753 mmHg 59%
    17:00 +20°C° 0 mm 4 mps 753 mmHg 62%
    18:00 +18°C° 0 mm 3 mps 753 mmHg 66%
    19:00 +16°C° 0 mm 3 mps 754 mmHg 71%
    20:00 +13°C° 0 mm 3 mps 754 mmHg 76%
    21:00 +13°C° 0 mm 3 mps 755 mmHg 76%
    22:00 +12°C° 0 mm 3 mps 755 mmHg 77%
    23:00 +11°C° 0 mm 3 mps 756 mmHg 78%

    26 May, Saturday

    Time Temperature Precipitation Wind Pressure Humidity
    00:00 +10°C° 0 mm 3 mps 756 mmHg 79%
    01:00 +10°C° 0 mm 3 mps 756 mmHg 80%
    02:00 +9°C° 0 mm 2 mps 757 mmHg 81%
    03:00 +9°C° 0 mm 2 mps 757 mmHg 81%
    04:00 +9°C° 0 mm 2 mps 757 mmHg 81%
    05:00 +9°C° 0 mm 2 mps 758 mmHg 80%
    06:00 +12°C° 0 mm 2 mps 758 mmHg 75%
    07:00 +14°C° 0 mm 2 mps 758 mmHg 69%
    08:00 +16°C° 0 mm 2 mps 758 mmHg 63%
    09:00 +17°C° 0 mm 2 mps 758 mmHg 59%
    10:00 +18°C° 0 mm 2 mps 759 mmHg 54%
    11:00 +19°C° 0 mm 2 mps 759 mmHg 50%
    12:00 +20°C° 0 mm 2 mps 759 mmHg 49%
    13:00 +20°C° 0 mm 2 mps 758 mmHg 49%
    14:00 +21°C° 0 mm 2 mps 758 mmHg 48%
    15:00 +20°C° 0 mm 2 mps 758 mmHg 51%
    16:00 +20°C° 0 mm 2 mps 758 mmHg 53%
    17:00 +20°C° 0 mm 2 mps 757 mmHg 56%
    18:00 +18°C° 0 mm 2 mps 757 mmHg 61%
    19:00 +16°C° 0 mm 1 mps 757 mmHg 67%
    20:00 +15°C° 0 mm 1 mps 757 mmHg 72%
    21:00 +14°C° 0 mm 1 mps 757 mmHg 74%
    22:00 +13°C° 0 mm 1 mps 757 mmHg 76%
    23:00 +12°C° 0 mm 1 mps 757 mmHg 78%

    27 May, Sunday

    Time Temperature Precipitation Wind Pressure Humidity
    00:00 +12°C° 0 mm 1 mps 757 mmHg 80%
    01:00 +12°C° 0 mm 1 mps 757 mmHg 82%
    02:00 +11°C° 0 mm 1 mps 757 mmHg 83%
    03:00 +11°C° 0 mm 1 mps 757 mmHg 84%
    04:00 +12°C° 0 mm 1 mps 757 mmHg 84%
    05:00 +12°C° 0 mm 1 mps 757 mmHg 84%
    06:00 +14°C° 0 mm 2 mps 757 mmHg 79%
    07:00 +16°C° 0 mm 2 mps 757 mmHg 74%
    08:00 +17°C° 0 mm 2 mps 757 mmHg 68%
    09:00 +18°C° 0 mm 2 mps 757 mmHg 64%
    10:00 +19°C° 0 mm 3 mps 757 mmHg 61%
    11:00 +20°C° 0 mm 3 mps 756 mmHg 57%
    12:00 +21°C° 0 mm 3 mps 756 mmHg 57%
    13:00 +21°C° 0 mm 3 mps 756 mmHg 57%
    14:00 +21°C° 0 mm 3 mps 755 mmHg 57%
    15:00 +21°C° 0 mm 3 mps 755 mmHg 59%
    16:00 +21°C° 0 mm 3 mps 754 mmHg 61%
    17:00 +21°C° 0 mm 3 mps 754 mmHg 63%
    18:00 +19°C° 0 mm 2 mps 754 mmHg 69%
    19:00 +18°C° 0 mm 2 mps 754 mmHg 74%
    20:00 +16°C° 0 mm 1 mps 754 mmHg 80%
    21:00 +15°C° 0 mm 1 mps 754 mmHg 81%
    22:00 +14°C° 0 mm 1 mps 754 mmHg 82%
    23:00 +14°C° 0 mm 1 mps 754 mmHg 83%

    28 May, Monday

    Time Temperature Precipitation Wind Pressure Humidity
    00:00 +13°C° 0 mm 2 mps 754 mmHg 83%
    01:00 +13°C° 0 mm 2 mps 754 mmHg 84%
    02:00 +13°C° 0 mm 2 mps 754 mmHg 84%
    03:00 +13°C° 0 mm 2 mps 754 mmHg 84%
    04:00 +13°C° 0 mm 1 mps 754 mmHg 84%
    05:00 +13°C° 0 mm 1 mps 754 mmHg 84%
    06:00 +15°C° 0 mm 1 mps 754 mmHg 80%
    07:00 +18°C° 0 mm 1 mps 755 mmHg 75%
    08:00 +20°C° 0 mm 1 mps 755 mmHg 71%
    09:00 +21°C° 0 mm 1 mps 755 mmHg 66%
    10:00 +23°C° 0 mm 1 mps 755 mmHg 62%
    11:00 +24°C° 0 mm 1 mps 755 mmHg 58%
    12:00 +24°C° 0 mm 1 mps 755 mmHg 56%
    13:00 +25°C° 0 mm 1 mps 755 mmHg 54%
    14:00 +25°C° 0 mm 1 mps 755 mmHg 52%
    15:00 +25°C° 0 mm 1 mps 755 mmHg 55%
    16:00 +24°C° 0 mm 1 mps 754 mmHg 58%
    17:00 +24°C° 0 mm 1 mps 754 mmHg 62%
    18:00 +22°C° 0 mm 1 mps 754 mmHg 65%
    19:00 +21°C° 0 mm 1 mps 754 mmHg 69%
    20:00 +19°C° 0 mm 1 mps 754 mmHg 72%
    21:00 +17°C° 0 mm 2 mps 754 mmHg 73%
    22:00 +16°C° 0 mm 2 mps 754 mmHg 74%
    23:00 +15°C° 0 mm 2 mps 755 mmHg 75%
    Show more